INMARSAT 3-F1

Last updated on Fri Oct 31 2025 00:02:44 GMT+0000 (Coordinated Universal Time)

1 23839U 96020A 25302.64157808 -.00000305 00000+0 00000+0 0 9990 2 23839 10.1202 48.7029 0009133 175.7474 185.0565 1.00000103107951
UTC large
Height (km)
Speed (km/s)
/
Latitude / Longitude
Inclination (degrees)
Orbital Period (minutes)
Azimuth
Elevation
Range (km)
Doppler Factor

Next 0 passes for location: London (51.5072 / 0.1276)

Sorry there are no passes over London.